Location: Trebic
(49.2170°N, 15.8830°E)
Time: 08:57:36
(UTC+02:00)

Transit 4A - Pass Details

Date: 23 July 2019
Orbit: 864 x 981 km, 66.8° (Epoch: 25 August)

Event Time Altitude Azimuth Distance (km) Brightness Sun altitude
Exits shadow 01:47:15 32° 168° (SSE) 1,608 8.6 -19.9°
Maximum altitude 01:49:46 48° 115° (ESE) 1,258 8.4 -19.8°
Drops below altitude 10° 01:55:53 10° 44° (NE) 2,741 11.2 -19.6°
Sets 01:58:32 0° 39° (NE) 3,689 12.2 -19.5°
